This is the latest recevied weather packets stored in our database for station/object KC9GSD. If no packets are shown the sender has not sent any weather packets the latest 10 day(s).
| Time | Temp. | Humidity | Pressure | Rain* | Wind** | Luminosity | Snow |
|---|---|---|---|---|---|---|---|
| 1777650668 | 15.56° C | 64% | 1015.3 hPa | 0 mm | - | 332 W/m² | - |
| 1777650365 | 15.56° C | 66% | 1015.3 hPa | 0 mm | - | 303 W/m² | - |
| 1777650062 | 15.56° C | 68% | 1015.4 hPa | 0 mm | - | 302 W/m² | - |
| 1777649759 | 15.56° C | 67% | 1015.3 hPa | 0 mm | - | 283 W/m² | - |
| 1777649456 | 15° C | 67% | 1015.3 hPa | 0 mm | - | 252 W/m² | - |
| 1777649153 | 15° C | 65% | 1015.1 hPa | 0 mm | - | 244 W/m² | - |
| 1777648850 | 15° C | 67% | 1015.1 hPa | 0 mm | - | 254 W/m² | - |
| 1777648547 | 15° C | 67% | 1015 hPa | 0 mm | - | 242 W/m² | - |
| 1777648244 | 14.44° C | 69% | 1015 hPa | 0 mm | - | 226 W/m² | - |
| 1777647944 | 14.44° C | 66% | 1015 hPa | 0 mm | - | 224 W/m² | - |
| 1777647641 | 14.44° C | 67% | 1014.8 hPa | 0 mm | - | 204 W/m² | - |
| 1777647337 | 13.89° C | 66% | 1015.2 hPa | 0 mm | - | 178 W/m² | - |
| 1777647036 | 14.44° C | 67% | 1014.9 hPa | 0 mm | - | 166 W/m² | - |
| 1777646731 | 13.89° C | 66% | 1015 hPa | 0 mm | - | 174 W/m² | - |
| 1777646427 | 13.89° C | 64% | 1015.1 hPa | 0 mm | - | 197 W/m² | - |
| 1777646123 | 13.89° C | 66% | 1014.9 hPa | 0 mm | - | 204 W/m² | - |
| 1777645821 | 13.89° C | 70% | 1014.8 hPa | 0 mm | - | 204 W/m² | - |
| 1777645518 | 13.89° C | 67% | 1015.2 hPa | 0 mm | - | 197 W/m² | - |
| 1777645214 | 13.89° C | 70% | 1015 hPa | 0 mm | - | 189 W/m² | - |
| 1777644909 | 13.89° C | 68% | 1014.7 hPa | 0 mm | - | 189 W/m² | - |
| 1777644608 | 13.89° C | 72% | 1015 hPa | 0 mm | - | 163 W/m² | - |
| 1777644303 | 13.89° C | 68% | 1014.8 hPa | 0 mm | - | 154 W/m² | - |
| 1777643999 | 13.89° C | 68% | 1014.9 hPa | 0 mm | - | 145 W/m² | - |
| 1777643696 | 13.33° C | 71% | 1015.1 hPa | 0 mm | - | 117 W/m² | - |
| 1777643394 | 13.89° C | 68% | 1015 hPa | 0 mm | - | 139 W/m² | - |
* Rain latest hour (hover to see other rain measurements)
** Current wind speed in m/s (hover to see current wind gust speed)